Meath Environmental Platform

Observations for Trim Patrick St

Time AQI Temp °C Hum % Pres Pa CO μg/m³ H₂S μg/m³ NO μg/m³ NO₂ μg/m³ O₃ μg/m³ SO₂ μg/m³ PM1 μg/m³ PM2.5 μg/m³ PM10 μg/m³
Saturday 8 August 2026
06:17 1 14.9 74 38,460 0.24 0 3.09 11.65 24.76 0 3.71 7.04 7.74
06:16 1 14.9 74 38,460 0.23 0 3.05 11.74 20 0 2.86 7.04 7.75
06:15 1 14.9 74 38,460 0.24 1.61 3.12 22.42 26.15 0 3.71 7.04 7.74
06:13 1 14.9 74 38,460 0.23 0 3.02 21.13 19.28 0 3.71 7.03 7.73
06:11 1 14.9 74 38,460 0.24 0 3.11 9.96 26.98 0 4.57 8.46 9.3
06:10 1 14.9 74 38,460 0.23 0.34 3.07 21.96 18.5 0 3.71 7.04 7.74
06:08 1 14.9 74 38,460 0.23 0 3.1 13.4 21.85 0 3.71 7.02 7.73
06:07 1 14.9 74 38,460 0.23 0 3.14 13.86 22.22 0 3.71 7.76 8.54
06:05 1 14.8 74 38,460 0.24 0.73 3.14 18.43 22.16 0 5.43 9.15 10.07
06:01 1 14.9 74 38,460 0.23 0.39 3.11 19.47 19.38 0 3.71 7.75 8.53
06:00 1 14.9 74 38,460 0.23 0 3.09 18.31 17.87 0 5.43 9.16 10.08
05:59 1 14.8 74 38,460 0.23 0.21 3.11 13.58 21.81 0 4.57 9.17 10.08
05:58 1 14.8 73 38,460 0.24 0.08 3.11 17.85 19.77 0 3.71 8.51 9.36
05:57 1 14.8 74 38,460 0.24 1.09 3.11 14.14 21.72 0 3.71 7.75 8.53
05:56 1 14.9 74 38,460 0.22 1.64 3.05 27.33 22.45 0 4.57 9.16 10.08
05:55 1 14.8 74 38,460 0.23 0.99 2.96 19.62 18.64 0 3.71 7.71 8.49
05:54 1 14.8 75 38,460 0.24 0.49 2.89 18.46 18.88 0 3.71 8.41 9.25
05:53 1 14.8 75 38,460 0.23 0.21 2.94 13.68 19.3 0 3.71 6.99 7.69
05:52 1 14.8 74 38,460 0.24 0.41 2.88 20.77 20.73 0 5.43 9.15 10.06
05:51 1 14.8 75 38,460 0.24 0 2.95 13.68 21.17 0 4.57 8.41 9.25